MOLNIYA 1-36

Last updated on Jan. 25, 2020, 4:43 a.m. UTC

1 09880U 77021A   20024.05502391 -.00000925  00000-0  31938-3 0  9999
2 09880  62.3689  45.8442 7480787 282.5985   9.8986  2.00899808211848
UTC
Height (km)
Latitude
Longitude
Inclination
Orbital Period
UTC large
Height (km)
Speed (km/s)
/
Latitude / Longitude
Inclination (degrees)
Orbital Period (minutes)
Azimuth
Elevation
Range (km)
Doppler Factor
iOS Compass Heading
iOS Angle

Next 30 passes for location: Hong Kong

Rise time Rise Azimuth (degrees) Set time Set Azimuth (degrees) Duration Max altitude (degrees)

No matching passes for this satellites